Change the Weather History Date:

Saturday, July 26, 2014

  Actual Average Record
Temperature  
Mean Temperature 68 °F -  
Max Temperature 80 °F 84 °F 95 °F (2005)
Min Temperature 57 °F 67 °F 51 °F (1976)
Cooling Degree Days 3    
Growing Degree Days 18 (Base 50)    
Moisture  
Dew Point 65 °F    
Average Humidity 83    
Maximum Humidity 97    
Minimum Humidity 66    
Precipitation  
Precipitation 0.00 in - - ()
Sea Level Pressure  
Sea Level Pressure 29.97 in    
Wind  
Wind Speed 2 mph (South)    
Max Wind Speed 10 mph    
Max Gust Speed 17 mph    
Visibility 10 miles    
Events Rain    
Averages and records for this station are not official NWS values.
T = Trace of Precipitation, MM = Missing Value Source: NWS Daily Summary

Daily Weather History Graph

Daily Weather History Graph

Search for Another Location

Airport or City:

Trip Planner

Search our weather history database for the weather conditions in past years. The results will help you decide how hot, cold, wet, or windy it might be!

Date:

Astronomy

Jul. 26, 2014 Rise Set
Actual Time 5:54 AM EDT 8:18 PM EDT
Civil Twilight 5:24 AM EDT 8:48 PM EDT
Nautical Twilight 4:46 AM EDT 9:26 PM EDT
Astronomical Twilight 4:04 AM EDT 10:07 PM EDT
Moon 5:44 AM EDT (7/26) 7:52 PM EDT (7/26)
Length of Visible Light 15h 24m
Length of Day
14h 23m
Waning Crescent, 0% of the Moon is Illuminated
Jul 26
Waning Crescent
Jul 26
New
Aug 3
First Quarter
Aug 10
Full
Aug 17
Last Quarter

Hourly Weather History & Observations

Time (EDT) Temp. Dew Point Humidity Pressure Visibility Wind Dir Wind Speed Gust Speed Precip Events Conditions
1:54 AM 57.9 °F 55.9 °F 93% 30.02 in 10.0 mi Calm Calm - N/A   Clear
2:54 AM 57.9 °F 55.9 °F 93% 30.01 in 10.0 mi Calm Calm - N/A   Clear
3:54 AM 57.9 °F 57.0 °F 97% 30.01 in 10.0 mi Calm Calm - N/A   Clear
4:54 AM 61.0 °F 59.0 °F 93% 30.01 in 10.0 mi Calm Calm - N/A   Clear
5:54 AM 61.0 °F 59.0 °F 93% 30.01 in 10.0 mi Calm Calm - N/A   Clear
6:54 AM 63.0 °F 61.0 °F 93% 30.01 in 10.0 mi Calm Calm - N/A   Scattered Clouds
7:54 AM 68.0 °F 64.0 °F 87% 30.02 in 10.0 mi Calm Calm - N/A   Partly Cloudy
8:54 AM 73.0 °F 66.0 °F 79% 30.01 in 10.0 mi Variable 3.5 mph - N/A   Clear
9:54 AM 75.0 °F 64.9 °F 71% 30.02 in 10.0 mi Calm Calm - N/A   Mostly Cloudy
11:54 AM 75.0 °F 68.0 °F 79% 30.00 in 10.0 mi SSW 4.6 mph - 0.00 in Rain Light Rain
1:54 PM 75.0 °F 69.1 °F 82% 29.97 in 10.0 mi Variable 3.5 mph - 0.00 in   Overcast
2:54 PM 78.1 °F 69.1 °F 74% 29.96 in 10.0 mi SSE 9.2 mph - N/A   Mostly Cloudy
3:26 PM 78.1 °F 66.0 °F 66% 29.96 in 10.0 mi Variable 6.9 mph - N/A   Mostly Cloudy
3:34 PM 77.0 °F 66.0 °F 69% 29.96 in 10.0 mi Variable 6.9 mph - N/A   Overcast
3:54 PM 79.0 °F 68.0 °F 69% 29.95 in 10.0 mi Variable 5.8 mph 17.3 mph N/A   Mostly Cloudy
4:54 PM 79.0 °F 68.0 °F 69% 29.94 in 10.0 mi SSW 10.4 mph 17.3 mph N/A   Clear
5:54 PM 78.1 °F 69.1 °F 74% 29.93 in 10.0 mi Variable 5.8 mph - N/A   Clear
6:54 PM 77.0 °F 69.1 °F 76% 29.92 in 10.0 mi South 5.8 mph - N/A   Clear
7:54 PM 75.0 °F 69.1 °F 82% 29.92 in 10.0 mi South 4.6 mph - N/A   Clear
8:54 PM 73.0 °F 69.1 °F 87% 29.93 in 10.0 mi Variable 3.5 mph - N/A   Clear
9:54 PM 72.0 °F 69.1 °F 91% 29.93 in 10.0 mi SSE 3.5 mph - N/A   Clear
10:54 PM 71.1 °F 69.1 °F 93% 29.93 in 10.0 mi Calm Calm - N/A   Clear
11:54 PM 71.1 °F 69.1 °F 93% 29.93 in 10.0 mi Calm Calm - N/A   Clear